Regional Weather Roundup
Issued by NWS

Home | Current Version | Previous Version | Text Only | Print | Product List | Glossary Off
Versions: 1 2 3 4 5 6 7 8 9 10 11 12 13 14 15 16 17 18 19 20 21 22 23 24 25 26 27 28 29 30 31 32 33 34 35 36 37 38 39 40 41 42 43 44 45 46 47 48 49 50

000
ASUS45 KCYS 252110
RWRWY

WYOMING REGIONAL WEATHER ROUNDUP
NATIONAL WEATHER SERVICE CHEYENNE WY
300 PM MDT SAT APR 25 2015

NOTE:  "FAIR" INDICATES FEW OR NO CLOUDS BELOW 12,000 FEET
WITH NO SIGNIFICANT WEATHER AND/OR OBSTRUCTIONS TO VISIBILITY.

WYZ001-252200-
YELLOWSTONE NATIONAL PARK

CITY           SKY/WX    TMP DP  RH WIND       PRES   REMARKS
LK YELLOWSTONE   N/A     37  26  64 MISG      29.83S
W YELLOWSTONE  NOT AVBL

$$
WYZ002>013-054>058-071-098>099-252200-
NORTHERN WYOMING

CITY           SKY/WX    TMP DP  RH WIND       PRES   REMARKS
JACKSON        PTSUNNY   46  21  36 S9G18     29.80F
CODY           CLOUDY    45  37  76 N10       29.79S
GREYBULL       FAIR      54  34  46 N12       29.76F
WORLAND        PTSUNNY   52  38  58 N5        29.77F
SHERIDAN       CLOUDY    44  35  70 NW12      29.81R
BUFFALO        CLOUDY    44  35  70 N22G29    29.79R
GILLETTE       CLOUDY    45  38  76 NW20      29.75R
HULETT         CLOUDY    50  45  81 NW7       29.74R
NEWCASTLE      TSTM      50  43  76 E12       29.69S

$$
WYZ014>020-022>026-101>103-252200-
CENTRAL WYOMING

CITY           SKY/WX    TMP DP  RH WIND       PRES   REMARKS
BIG PINEY      FAIR      48  19  31 VRB3      29.78F
PINEDALE       MOCLDY    43  30  61 NW5       29.80F
DUBOIS         FAIR      43  18  36 W21       29.76F
LANDER         CLOUDY    54  36  50 E16       29.68S
RIVERTON       PTSUNNY   55  33  43 N18       29.70S
CASPER         FAIR      56  30  37 SW20      29.73S
DOUGLAS        CLOUDY    58  31  35 W14       29.73R

$$
WYZ021-027>030-104>119-252200-
SOUTHERN WYOMING

CITY           SKY/WX    TMP DP  RH WIND       PRES   REMARKS
EVANSTON       FAIR      49  26  41 W8        29.75F
KEMMERER       MOCLDY    48  27  43 W7G16     29.77F
FORT BRIDGER   PTCLDY    55  25  30 W16       29.78F
ROCK SPRINGS   FAIR      50  22  33 W7        29.78F
DIXON          FAIR      50  33  52 E3        29.83F
RAWLINS        FAIR      54  27  35 W16G29    29.78F
SARATOGA       FAIR      52  25  35 W12G18    29.81F
LARAMIE        CLOUDY    48  32  53 W7        29.79S
CHEYENNE       PTSUNNY   61  28  28 S13G18    29.73S
TORRINGTON     FAIR      67  31  26 W15       29.67F
PINE BLUFFS    FAIR      64  36  34 NE8       29.72F

$$



USA.gov is the U.S. government's official web portal to all federal, state and local government web resources and services.